| time (UTC) | temp C | wind direction | speed KPH | gust KPH | rain 1hr cm | rain 24hr cm | rain mn cm | humidity % | barometer mb |
| 20260502194503 | 16 | 193 | 1.6 | 6.4 | 0.00 | 0.08 | 0.08 | 45 | 1011.5 |
| 20260502193603 | 16 | 222 | 1.6 | 6.4 | 0.00 | 0.08 | 0.08 | 46 | 1011.5 |
| 20260502192703 | 15 | 182 | 1.6 | 6.4 | 0.00 | 0.08 | 0.08 | 50 | 1011.5 |
| 20260502191803 | 15 | 281 | 4.8 | 11.3 | 0.00 | 0.08 | 0.08 | 49 | 1011.8 |
| 20260502190903 | 15 | 243 | 4.8 | 11.3 | 0.00 | 0.08 | 0.08 | 50 | 1011.7 |
| 20260502190220 | 16 | 248 | 3.2 | 11.3 | 0.00 | 0.08 | 0.08 | 50 | 1011.9 |
| 20260502185403 | 17 | 230 | 4.8 | 11.3 | 0.00 | 0.08 | 0.08 | 49 | 1012.0 |
| 20260502184503 | 17 | 242 | 3.2 | 11.3 | 0.00 | 0.08 | 0.08 | 50 | 1012.2 |
| 20260502183603 | 16 | 207 | 3.2 | 12.9 | 0.00 | 0.08 | 0.08 | 52 | 1012.0 |
| 20260502182703 | 16 | 209 | 3.2 | 9.7 | 0.00 | 0.08 | 0.08 | 53 | 1012.0 |
| 20260502181803 | 16 | 212 | 4.8 | 12.9 | 0.00 | 0.08 | 0.08 | 54 | 1012.3 |
| 20260502180903 | 16 | 222 | 3.2 | 9.7 | 0.00 | 0.08 | 0.08 | 55 | 1012.1 |
| 20260502163603 | 14 | 137 | 1.6 | 3.2 | 0.00 | 0.08 | 0.08 | 71 | 1013.0 |
| 20260502162703 | 14 | 127 | 0.0 | 3.2 | 0.00 | 0.08 | 0.08 | 72 | 1013.0 |
| 20260502161803 | 14 | 121 | 0.0 | 1.6 | 0.00 | 0.08 | 0.08 | 70 | 1012.9 |
| 20260502160903 | 14 | 106 | 1.6 | 4.8 | 0.00 | 0.08 | 0.08 | 72 | 1013.2 |
| 20260502152018 | 12 | 103 | 0.0 | 1.6 | 0.00 | 0.08 | 0.08 | 78 | 1013.2 |
| 20260502150903 | 12 | 157 | 0.0 | 3.2 | 0.00 | 0.08 | 0.08 | 80 | 1013.3 |
| 20260502122703 | 11 | 95 | 0.0 | 1.6 | 0.00 | 0.08 | 0.08 | 90 | 1013.3 |
| 20260502121803 | 10 | 202 | 0.0 | 4.8 | 0.00 | 0.08 | 0.08 | 93 | 1013.5 |
| 20260502120903 | 10 | 87 | 0.0 | 1.6 | 0.00 | 0.08 | 0.08 | 94 | 1013.2 |
| 20260502115403 | 10 | 123 | 0.0 | 1.6 | 0.00 | 0.08 | 0.08 | 95 | 1013.4 |
| 20260502114503 | 10 | 80 | 0.0 | 3.2 | 0.00 | 0.08 | 0.08 | 95 | 1013.6 |
| 20260502113603 | 10 | 194 | 0.0 | 3.2 | 0.00 | 0.08 | 0.08 | 95 | 1013.7 |
| 20260502112703 | 10 | 175 | 0.0 | 1.6 | 0.03 | 0.08 | 0.08 | 95 | 1013.4 |
| 20260502111803 | 10 | 166 | 0.0 | 1.6 | 0.08 | 0.08 | 0.08 | 94 | 1013.1 |
| 20260502110903 | 10 | 168 | 0.0 | 1.6 | 0.08 | 0.08 | 0.08 | 95 | 1013.0 |
| 20260502110003 | 10 | 0 | 0.0 | 0.0 | 0.08 | 0.08 | 0.08 | 95 | 1013.0 |
| 20260502105617 | 10 | 0 | 0.0 | 0.0 | 0.08 | 0.08 | 0.08 | 95 | 1012.8 |
| 20260502104503 | 10 | 116 | 0.0 | 1.6 | 0.08 | 0.08 | 0.08 | 94 | 1012.4 |
| 20260502103603 | 10 | 109 | 0.0 | 1.6 | 0.08 | 0.08 | 0.08 | 93 | 1012.5 |
| 20260502102703 | 10 | 187 | 0.0 | 3.2 | 0.05 | 0.05 | 0.05 | 92 | 1012.8 |
| 20260502101803 | 10 | 173 | 0.0 | 3.2 | 0.00 | 0.00 | 0.00 | 91 | 1012.9 |
| 20260502100903 | 10 | 181 | 0.0 | 3.2 | 0.00 | 0.00 | 0.00 | 92 | 1012.8 |
| 20260502090904 | 10 | 199 | 4.8 | 11.3 | 0.00 | 0.00 | 0.00 | 88 | 1012.8 |
| 20260502070903 | 10 | 194 | 3.2 | 9.7 | 0.00 | 0.00 | 0.00 | 86 | 1012.9 |
| 20260502070218 | 10 | 199 | 3.2 | 9.7 | 0.00 | 0.00 | 0.00 | 86 | 1013.0 |
| 20260502065403 | 10 | 198 | 4.8 | 9.7 | 0.00 | 0.00 | 0.00 | 85 | 1013.0 |
| 20260502064503 | 10 | 197 | 3.2 | 11.3 | 0.00 | 0.00 | 0.00 | 85 | 1013.2 |
| 20260502063603 | 10 | 214 | 4.8 | 11.3 | 0.00 | 0.00 | 0.00 | 84 | 1013.2 |
| 20260502062703 | 10 | 198 | 4.8 | 11.3 | 0.00 | 0.00 | 0.00 | 85 | 1013.3 |
| 20260502061803 | 11 | 204 | 4.8 | 12.9 | 0.00 | 0.00 | 0.00 | 84 | 1013.3 |
| 20260502061121 | 11 | 203 | 4.8 | 9.7 | 0.00 | 0.00 | 0.00 | 84 | 1013.3 |
| 20260502060004 | 10 | 196 | 3.2 | 11.3 | 0.00 | 0.00 | 0.00 | 84 | 1013.6 |
| 20260502055403 | 10 | 189 | 3.2 | 9.7 | 0.00 | 0.00 | 0.00 | 83 | 1013.3 |
| 20260502054503 | 10 | 196 | 3.2 | 11.3 | 0.00 | 0.00 | 0.00 | 83 | 1013.5 |
| 20260502053603 | 10 | 203 | 3.2 | 11.3 | 0.00 | 0.00 | 0.00 | 83 | 1013.3 |
| 20260502052703 | 10 | 186 | 3.2 | 4.8 | 0.00 | 0.00 | 0.00 | 82 | 1013.0 |
| 20260502051803 | 10 | 186 | 3.2 | 6.4 | 0.00 | 0.00 | 0.00 | 82 | 1013.0 |
| 20260502051117 | 10 | 189 | 3.2 | 6.4 | 0.00 | 0.00 | 0.00 | 82 | 1013.1 |
| 20260502050003 | 11 | 184 | 3.2 | 6.4 | 0.00 | 0.00 | 0.00 | 80 | 1013.3 |
| 20260502045403 | 11 | 174 | 1.6 | 4.8 | 0.00 | 0.00 | 0.00 | 80 | 1013.2 |
| 20260502044718 | 11 | 183 | 3.2 | 4.8 | 0.00 | 0.00 | 0.00 | 80 | 1013.2 |
| 20260502043603 | 11 | 187 | 3.2 | 9.7 | 0.00 | 0.00 | 0.00 | 78 | 1013.3 |
| 20260502042703 | 11 | 192 | 3.2 | 9.7 | 0.00 | 0.00 | 0.00 | 79 | 1013.3 |
| 20260502041803 | 11 | 193 | 4.8 | 11.3 | 0.00 | 0.00 | 0.00 | 79 | 1013.6 |
| 20260502041117 | 11 | 193 | 6.4 | 9.7 | 0.00 | 0.00 | 0.00 | 79 | 1013.3 |
| 20260502040004 | 11 | 197 | 4.8 | 11.3 | 0.00 | 0.00 | 0.00 | 78 | 1013.2 |
| 20260502035403 | 11 | 200 | 4.8 | 9.7 | 0.00 | 0.00 | 0.00 | 79 | 1013.5 |
| 20260502034503 | 11 | 196 | 4.8 | 12.9 | 0.00 | 0.00 | 0.00 | 79 | 1013.2 |
| 20260502033603 | 11 | 195 | 4.8 | 11.3 | 0.00 | 0.00 | 0.00 | 79 | 1013.2 |
| 20260502032918 | 11 | 194 | 4.8 | 9.7 | 0.00 | 0.00 | 0.00 | 80 | 1013.1 |
| 20260502031803 | 11 | 195 | 4.8 | 11.3 | 0.00 | 0.00 | 0.00 | 82 | 1013.2 |
| 20260502030903 | 11 | 194 | 6.4 | 11.3 | 0.00 | 0.00 | 0.00 | 82 | 1013.6 |
| 20260502030003 | 11 | 194 | 6.4 | 12.9 | 0.00 | 0.00 | 0.00 | 81 | 1013.4 |
| 20260502025403 | 11 | 194 | 6.4 | 12.9 | 0.00 | 0.00 | 0.00 | 82 | 1013.4 |
| 20260502024719 | 11 | 190 | 8.0 | 16.1 | 0.00 | 0.00 | 0.00 | 82 | 1013.6 |
| 20260502023603 | 11 | 188 | 6.4 | 14.5 | 0.00 | 0.00 | 0.00 | 84 | 1013.7 |
| 20260502022703 | 11 | 182 | 6.4 | 12.9 | 0.00 | 0.00 | 0.00 | 83 | 1013.5 |
| 20260502021803 | 11 | 177 | 6.4 | 12.9 | 0.00 | 0.00 | 0.00 | 84 | 1013.4 |
| 20260502020903 | 11 | 180 | 6.4 | 14.5 | 0.00 | 0.00 | 0.00 | 85 | 1013.4 |
| 20260502020221 | 11 | 188 | 6.4 | 14.5 | 0.00 | 0.00 | 0.00 | 84 | 1013.4 |
| 20260502015403 | 11 | 177 | 6.4 | 16.1 | 0.00 | 0.00 | 0.00 | 85 | 1013.4 |
| 20260502014503 | 11 | 183 | 6.4 | 12.9 | 0.00 | 0.00 | 0.00 | 85 | 1013.4 |
| 20260502013603 | 11 | 176 | 6.4 | 12.9 | 0.00 | 0.00 | 0.00 | 85 | 1013.3 |
| 20260502012703 | 11 | 173 | 6.4 | 14.5 | 0.00 | 0.00 | 0.00 | 85 | 1013.3 |
| 20260502011803 | 11 | 179 | 6.4 | 12.9 | 0.00 | 0.00 | 0.00 | 84 | 1013.2 |
| 20260502010903 | 11 | 181 | 6.4 | 14.5 | 0.00 | 0.00 | 0.00 | 83 | 1013.3 |
| 20260502010004 | 11 | 180 | 6.4 | 14.5 | 0.00 | 0.00 | 0.00 | 82 | 1012.9 |
| 20260502005403 | 11 | 177 | 6.4 | 12.9 | 0.00 | 0.00 | 0.00 | 82 | 1013.0 |
| 20260502004503 | 11 | 181 | 6.4 | 12.9 | 0.00 | 0.00 | 0.00 | 81 | 1013.1 |
| 20260502003603 | 11 | 175 | 4.8 | 11.3 | 0.00 | 0.00 | 0.00 | 79 | 1013.3 |
| 20260502002703 | 11 | 183 | 6.4 | 14.5 | 0.00 | 0.00 | 0.00 | 77 | 1013.1 |
| 20260502001803 | 11 | 178 | 6.4 | 12.9 | 0.00 | 0.00 | 0.00 | 77 | 1013.1 |
| 20260502000903 | 11 | 172 | 6.4 | 12.9 | 0.00 | 0.00 | 0.00 | 78 | 1012.9 |
| 20260502000218 | 11 | 181 | 6.4 | 12.9 | 0.00 | 0.00 | 0.00 | 80 | 1013.0 |
| 20260501235403 | 11 | 178 | 6.4 | 12.9 | 0.00 | 0.00 | 0.00 | 79 | 1012.7 |
| 20260501234503 | 11 | 172 | 6.4 | 12.9 | 0.00 | 0.00 | 0.00 | 78 | 1012.6 |
| 20260501233603 | 11 | 162 | 4.8 | 11.3 | 0.00 | 0.00 | 0.00 | 79 | 1012.6 |
| 20260501232921 | 11 | 167 | 4.8 | 11.3 | 0.00 | 0.00 | 0.00 | 80 | 1012.3 |
| 20260501232018 | 11 | 170 | 6.4 | 12.9 | 0.00 | 0.00 | 0.00 | 79 | 1012.6 |
| 20260501230903 | 11 | 174 | 6.4 | 12.9 | 0.00 | 0.00 | 0.00 | 78 | 1012.3 |
| 20260501230003 | 11 | 164 | 4.8 | 9.7 | 0.00 | 0.00 | 0.00 | 77 | 1012.4 |
| 20260501225403 | 12 | 170 | 4.8 | 11.3 | 0.00 | 0.00 | 0.00 | 77 | 1012.5 |
| 20260501224503 | 12 | 174 | 6.4 | 14.5 | 0.00 | 0.00 | 0.00 | 76 | 1012.6 |
| 20260501223603 | 12 | 179 | 6.4 | 14.5 | 0.00 | 0.00 | 0.00 | 75 | 1012.5 |
| 20260501222916 | 12 | 179 | 4.8 | 17.7 | 0.00 | 0.00 | 0.00 | 74 | 1012.5 |
| 20260501222019 | 12 | 177 | 6.4 | 12.9 | 0.00 | 0.00 | 0.00 | 76 | 1012.5 |
| 20260501220903 | 12 | 173 | 6.4 | 14.5 | 0.00 | 0.00 | 0.00 | 75 | 1012.7 |
| 20260501220003 | 12 | 181 | 6.4 | 16.1 | 0.00 | 0.00 | 0.00 | 74 | 1012.4 |
| 20260501215620 | 12 | 185 | 8.0 | 12.9 | 0.00 | 0.00 | 0.00 | 73 | 1012.5 |
| 20260501214503 | 12 | 169 | 6.4 | 14.5 | 0.00 | 0.00 | 0.00 | 71 | 1012.6 |
| 20260501213603 | 12 | 179 | 6.4 | 14.5 | 0.00 | 0.00 | 0.00 | 71 | 1012.5 |
| 20260501212703 | 12 | 172 | 6.4 | 12.9 | 0.00 | 0.00 | 0.00 | 71 | 1012.3 |
| 20260501211803 | 12 | 181 | 6.4 | 16.1 | 0.00 | 0.00 | 0.00 | 70 | 1012.5 |
| 20260501210903 | 12 | 183 | 6.4 | 20.9 | 0.00 | 0.00 | 0.00 | 69 | 1012.4 |
| 20260501210219 | 12 | 181 | 8.0 | 20.9 | 0.00 | 0.00 | 0.00 | 68 | 1012.6 |
| 20260501205403 | 12 | 186 | 8.0 | 16.1 | 0.00 | 0.00 | 0.00 | 67 | 1012.7 |
| 20260501204503 | 13 | 188 | 8.0 | 16.1 | 0.00 | 0.00 | 0.00 | 64 | 1012.5 |
| 20260501203603 | 12 | 198 | 8.0 | 17.7 | 0.00 | 0.00 | 0.00 | 64 | 1012.6 |
| 20260501202703 | 12 | 190 | 9.7 | 17.7 | 0.00 | 0.00 | 0.00 | 64 | 1012.4 |
| 20260501201803 | 13 | 184 | 8.0 | 16.1 | 0.00 | 0.00 | 0.00 | 65 | 1012.5 |
| 20260501200903 | 13 | 180 | 6.4 | 14.5 | 0.00 | 0.00 | 0.00 | 61 | 1012.5 |
| 20260501200003 | 14 | 185 | 6.4 | 14.5 | 0.00 | 0.00 | 0.00 | 58 | 1012.4 |
| 20260501195616 | 14 | 185 | 6.4 | 14.5 | 0.00 | 0.00 | 0.00 | 57 | 1012.4 |